This is the latest recevied weather packets stored in our database for station/object KJ5SC. If no packets are shown the sender has not sent any weather packets the latest 10 day(s).
| Time | Temp. | Humidity | Pressure | Rain* | Wind** | Luminosity | Snow |
|---|---|---|---|---|---|---|---|
| 1787671126 | 31.67° C | 70% | 1021 hPa | 0 mm | - | 258 W/m² | - |
| 1787670822 | 31.67° C | 71% | 1021 hPa | 0 mm | - | 494 W/m² | - |
| 1787670522 | 31.67° C | 72% | 1021 hPa | 0 mm | - | 500 W/m² | - |
| 1787670216 | 31.11° C | 74% | 1021 hPa | 0 mm | - | 443 W/m² | - |
| 1787669916 | 30.56° C | 73% | 1021 hPa | 0 mm | - | 467 W/m² | - |
| 1787669611 | 30.56° C | 76% | 1021 hPa | 0 mm | - | 432 W/m² | - |
| 1787669306 | 30.56° C | 76% | 1021 hPa | 0 mm | - | 381 W/m² | - |
| 1787669002 | 30.56° C | 76% | 1020.7 hPa | 0 mm | - | 109 W/m² | - |
| 1787668698 | 30° C | 78% | 1020.7 hPa | 0 mm | - | 377 W/m² | - |
| 1787668394 | 30° C | 78% | 1020.9 hPa | 0 mm | - | 283 W/m² | - |
| 1787668094 | 30° C | 78% | 1020.9 hPa | 0 mm | - | 342 W/m² | - |
| 1787667789 | 30° C | 78% | 1020.8 hPa | 0 mm | - | 231 W/m² | - |
| 1787667485 | 29.44° C | 80% | 1020.6 hPa | 0 mm | - | 323 W/m² | - |
| 1787667181 | 29.44° C | 81% | 1020.7 hPa | 0 mm | - | 254 W/m² | - |
| 1787666874 | 28.89° C | 83% | 1020.6 hPa | 0 mm | - | 158 W/m² | - |
| 1787666572 | 28.89° C | 84% | 1020.6 hPa | 0 mm | - | 103 W/m² | - |
| 1787666270 | 28.33° C | 85% | 1020.6 hPa | 0 mm | - | 203 W/m² | - |
| 1787665966 | 27.78° C | 86% | 1020.6 hPa | 0 mm | - | 183 W/m² | - |
| 1787665662 | 27.78° C | 88% | 1020.2 hPa | 0 mm | - | 90 W/m² | - |
| 1787665361 | 27.78° C | 88% | 1020.2 hPa | 0 mm | - | 78 W/m² | - |
| 1787665058 | 27.22° C | 89% | 1020.1 hPa | 0 mm | - | 81 W/m² | - |
| 1787664755 | 27.22° C | 90% | 1020.2 hPa | 0 mm | - | 61 W/m² | - |
| 1787664453 | 26.67° C | 91% | 1020 hPa | 0 mm | - | 63 W/m² | - |
| 1787664149 | 26.67° C | 91% | 1020.1 hPa | 0 mm | - | 50 W/m² | - |
| 1787663848 | 26.67° C | 91% | 1020.1 hPa | 0 mm | - | 45 W/m² | - |
* Rain latest hour (hover to see other rain measurements)
** Current wind speed in m/s (hover to see current wind gust speed)